www.pogodaiklimat.ru

Погода и климат >> Архив погоды >> Россия >> Волгоградская область >> Серафимович


ПОГОДА в Серафимовиче

  • Прогноз погоды в Серафимовиче
  • Монитор погоды в Серафимовиче

АРХИВ ПОГОДЫ в Серафимовиче

Время (UTC), дата Ветер
(напр.,м/с)
 
Видим.   Явления Облачность Т
(С)
Тd
(С)
f
(%)
Тe
(С)
Тes
(С)
Комфортность P
(гПа)
Po
(гПа)
Тmin
(С)
Tmax
(С)
R
(мм)
R24
(мм)
S
(см)
06 16.08 ЮВ 3 20 км 9/0
[Ci sp]
+26.7 +8.5 32 +27 +32 жарко 1010.8 996.5
09 16.08 ЮВ 4
{10}
20 км 9/0
[Ac trans Ci sp]
+29.2 +6.6 24 +28 +35 жарко 1009.9 995.8
12 16.08 ЮВ 6-11
{13}
20 км 9/0
[Ac trans Ci sp]
+31.2 +7.9 23 +30 +32 жарко 1008.3 994.3
15 16.08 ЮВ 2
{11}
20 км 10/3 600 м
[Cb calv Ac trans Ci sp]
+29.1 +9.4 29 +29 +29 жарко 1007.9 993.8 +31.6
18 16.08 ЮВ 3 20 км 10/4 600 м
[Cb calv Ac und]
+26.5 +9.8 35 +27 +27 жарко 1007.9 993.7
21 16.08 ЮВ 5-10
{10}
20 км 10/3 600 м
[Cb calv Ac und]
+25.4 +10.1 38 +26 +26 жарко 1007.1 992.9
00 17.08 Ю 5
{12}
20 км 10/3 600 м
[Cb calv Ac und]
+25.1 +7.4 32 +25 +25 комфорт 1008.6 994.3
03 17.08 ЮВ 4 20 км 10/0
[Ac und]
+22.7 +7.5 38 +24 +24 комфорт 1008.6 994.2 +22.7
06 17.08 В 2 20 км 9/0
[Ac trans]
+22.7 +10.9 47 +25 +28 комфорт 1009.2 994.8 +21.6
09 17.08 ЮВ 4 20 км 9/0
[Ac trans Ci sp]
+28.7 +7.1 26 +28 +33 жарко 1007.8 993.7
12 17.08 Ю 3 20 км 10/3 600 м
[Cb calv Ac und]
+27.3 +8.2 30 +27 +29 жарко 1008.0 993.8
15 17.08 Ю 2 20 км 9/0
[Ac trans]
+27.4 +11.7 38 +29 +29 жарко 1007.5 993.4 +29.2
18 17.08 Ю 2 20 км 6/0
[Ac trans Ci sp]
+24.2 +13.9 53 +27 +27 жарко 1008.1 993.8
21 17.08 ЮЗ 2 20 км 3/0
[Ci sp]
+22.5 +13.0 55 +25 +25 комфорт 1008.8 994.4
00 18.08 ЮЗ 1 20 км ясно +20.5 +12.5 60 +24 +24 комфорт 1009.5 995.0
03 18.08 З 2 20 км ясно +20.4 +14.1 67 +23 +24 комфорт 1010.1 995.6 +18.7
06 18.08 СВ 1 20 км 9/0
[Ac trans Ci fib]
+25.7 +15.7 54 +29 +35 душно 1010.3 996.0
09 18.08 ЮВ 2 20 км 9/4 600 м
[Cu hum Ac trans Ci fib]
+30.8 +16.1 41 +34 +39 очень
душно
1009.8 995.8
12 18.08 ЮЗ 4 20 км гроза без осадков 10/8 600 м
[Cb calv Ac und]
+26.2 +18.9 64 +31 +32 очень
душно
1010.3 996.1
15 18.08 штиль 0 20 км {гроза} 9/8 600 м
[Cb calv Ac trans]
+25.8 +18.1 62 +30 +30 душно 1011.0 996.8 +31.9
18 18.08 СЗ 1 20 км {гроза} 8/0
[Ac trans Ci sp]
+23.3 +20.0 82 +30 +30 очень
душно
1012.0 997.6
21 18.08 С 1 20 км 6/0
[Ci sp]
+21.1 +18.1 83 +25 +25 комфорт 1012.6 998.1
00 19.08 ЮВ 1 20 км 6/0
[Ac trans Ci sp]
+18.9 +15.2 79 +21 +21 комфорт 1012.7 998.1
03 19.08 Ю 1 20 км 3/0
[Ci sp]
+18.3 +13.6 74 +20 +20 1014.1 999.4 +16.9
06 19.08 СВ 1 20 км 1/0
[Ci fib]
+24.8 +14.7 53 +27 +36 жарко 1014.3 999.9
09 19.08 ЮВ 2 20 км 6/0
[Ac trans Ci fib]
+32.1 +9.8 25 +31 +41 жарко 1014.5 1000.5
12 19.08 СЗ 4 20 км 8/3 600 м
[Cu med, cong Ac trans Ci fib]
+29.8 +13.3 36 +31 +34 жарко 1014.7 1000.6
15 19.08 СЗ 3 20 км 3/0
[Ac trans]
+29.0 +14.2 40 +31 +31 жарко 1015.0 1000.8 +32.5
18 19.08 З 2 20 км 3/0
[Ac trans]
+24.7 +15.2 55 +28 +28 душно 1016.3 1001.9
21 19.08 З 2 20 км ясно +21.5 +18.4 83 +26 +26 душно 1016.4 1001.9
00 20.08 З 1 20 км ясно +19.7 +18.1 90 +23 +23 комфорт 1016.6 1002.0
03 20.08 З 2 20 км ясно +18.0 +16.5 91 +19 +19 1017.2 1002.5 +17.9
06 20.08 СЗ 2 20 км ясно +23.1 +17.0 69 +28 +36 душно 1017.9 1003.4
09 20.08 СЗ 3 20 км ясно +29.5 +15.6 43 +32 +44 душно 1017.6 1003.4
12 20.08 С 3 20 км ясно +32.0 +14.5 35 +34 +41 душно 1016.9 1002.8
15 20.08 С 4 20 км ясно +29.8 +15.4 42 +33 +33 душно 1017.4 1003.2 +32.2
18 20.08 СЗ 3 20 км ясно +24.9 +14.4 52 +27 +27 жарко 1018.9 1004.5
21 20.08 С 2 20 км ясно +21.8 +14.8 64 +25 +25 комфорт 1019.3 1004.7
00 21.08 СЗ 2 20 км ясно +19.3 +15.3 78 +22 +22 комфорт 1019.7 1005.0
03 21.08 СЗ 2 20 км ясно +18.4 +15.0 81 +19 +20 1020.1 1005.4 +18.1
06 21.08 С 4 20 км ясно +24.7 +15.8 58 +28 +33 душно 1019.6 1005.2
09 21.08 С 3 20 км ясно +30.0 +13.7 37 +32 +43 жарко 1018.3 1004.1
12 21.08 С 3 20 км ясно +32.6 +10.8 26 +32 +39 жарко 1017.1 1003.0
15 21.08 С 3 20 км ясно +31.4 +10.8 28 +31 +32 жарко 1016.5 1002.4 +32.8
18 21.08 СВ 2 20 км ясно +25.6 +14.5 50 +28 +28 жарко 1017.7 1003.3
21 21.08 В 3 20 км ясно +22.6 +14.1 59 +26 +26 жарко 1018.3 1003.7
00 22.08 В 2 20 км ясно +20.0 +13.6 67 +23 +23 комфорт 1018.6 1003.9
03 22.08 С 1 20 км ясно +18.7 +13.2 70 +21 +21 комфорт 1019.0 1004.3 +17.9
06 22.08 С 2 20 км ясно +25.1 +14.4 51 +28 +35 жарко 1018.4 1004.0
09 22.08 СВ 2 20 км ясно +31.4 +12.7 32 +32 +46 жарко 1017.3 1003.2
12 22.08 СВ 3 20 км ясно +33.5 +12.0 27 +34 +40 очень
жарко
1016.2 1002.2
15 22.08 СВ 2 20 км ясно +31.7 +12.2 30 +32 +33 жарко 1016.2 1002.1 +33.6
18 22.08 В 2 20 км ясно +26.5 +12.7 42 +28 +28 жарко 1017.2 1002.9
21 22.08 С 1 20 км ясно +22.7 +13.5 56 +26 +26 жарко 1017.9 1003.4
00 23.08 СВ 1 20 км 3/0
[Ci sp]
+19.4 +12.8 66 +22 +22 комфорт 1018.4 1003.7
03 23.08 В 1 20 км 9/0
[Ci]
+19.2 +12.8 66 +21 +22 комфорт 1018.9 1004.2 +18.3

 

Местоположение метеостанции Серафимович (Волгоградская область, Россия): широта 49.57 долгота 42.73 высота над уровнем моря 129 м.

В архиве по умолчанию представлена погода в Серафимовиче за последнюю неделю. Архивные данные за месяц целиком и за предыдущие месяцы, начиная с января 2011 года, Вы можете получить, выбрав интересующий диапазон дат из раскрывающегося списка и нажав кнопку "Ввод!".


*Определитесь, кто Вы:
робот инопланетянин человек

Внимание! Время в таблицах - всемирное. Для получения местного времени необходимо прибавить поправку, которая равна 3 ч.

Смотрите также архив погоды в соседних городах и на ближайших метеорологических станциях:

Погода в Михайловке (Волгоградская область, Россия) (69 км)
Погода в Фролове (Волгоградская область, Россия) (72 км)
Погода в Боковской (Ростовская область, Россия) (76 км)
Погода в Иловле (Волгоградская область, Россия) (97 км)
Погода в Новоаннинском (Волгоградская область, Россия) (107 км)
Погода в Калаче-на-Дону (Волгоградская область, Россия) (113 км)
Погода в Казанской (Ростовская область, Россия) (117 км)
Погода в Даниловке (Волгоградская область, Россия) (133 км)
Погода в Ольховке (Волгоградская область, Россия) (135 км)
Погода в Нижнем Чире (Волгоградская область, Россия) (141 км)

Пояснения к столбцам:

Ветер - указаны скорость ветра в м/с - средняя за 10 мин, порывы в срок и между сроками (в фигурных скобках) и направление, откуда дует ветер: С - северный, СВ - северо-восточный, В - восточный, ЮВ - юго-восточный, Ю - южный, ЮЗ - юго-западный, З - западный, СЗ - северо-западный.
Видимость - горизонтальная дальность видимости в метрах или километрах. При видимости от 1 до 10 км при отсутствии осадков обычно наблюдается дымка, при ухудшении видимости до 1 км и менее - туман. В сухую погоду видимость может ухудшаться дымом, пылью или мглою.
Явления - указаны атмосферные явления, наблюдавшиеся в срок или в последний час перед сроком; фигурными скобками обозначены явления, наблюдавшиеся между сроками (за 1-3 часа до срока); квадратными скобками обозначены град или гололедные отложения с указанием их диаметра в мм.
Облачность - указаны через наклонную черту общая и нижняя облачность в баллах и высота нижней границы облаков в метрах; квадратными скобками обозначены формы облаков: Ci - перистые, Cs - перисто-слоистые, Cc - перисто-кучевые, Ac - высококучевые, As - высокослоистые, Sc - слоисто-кучевые, Ns - слоисто-дождевые, Cu - кучевые, Cb - кучево-дождевые. Подробнее классификацию облаков см. в Атласе облаков (PDF).
T - Температура воздуха - температура, измеренная на высоте 2 м над землей.
Td - Температура точки росы - температура, при понижении до которой содержащийся в воздухе водяной пар достигнет насыщения.
f - Относительная влажность воздуха - влажноcть воздуха, измеренная на высоте 2 м над землей.
Te - Эффективная температура - температура, которую ощущает одетый по сезону человек в тени. Характеристика душности погоды. При расчете учитывается влияние влажности воздуха и скорости ветра на теплоощущения человека.
Tes - Эффективная температура на солнце - температура, которую ощущает человек, с поправкой на солнечный нагрев. Характеристика знойности погоды. Зависит от высоты солнца над горизонтом, облачности и скорости ветра. Ночью, в пасмурную погоду, а также при ветре 12 м/с и более поправка равна нулю.
P - Атмосферное давление - приведенное к уровню моря атмосферное давление.
Po - Атмосферное давление - измеренное на уровне метеостанции атмосферное давление.
Tmin - Минимальная температура - минимум температуры воздуха на высоте 2 м над землей.
Tmax - Максимальная температура - максимум температуры воздуха на высоте 2 м над землей.
R - Количество осадков - Количество выпавших осадков за период времени, мм. При наведении курсора мыши на число - период времени, за который выпало указанное количество осадков.
R24 - Количество осадков - Количество выпавших осадков за 24 часа, мм.
S - Снежный покров - Высота снежного покрова, см. При наведении курсора мыши на число - состояние снежного покрова и степень покрытия местности в баллах.